Temp
4 4 4 4 5 5 7 7 8 8 8 9 9 9 10 9 9 10 8 11 10 5 6 6 8 8 8 7 8 9 10 9 7 12 12 8 9 11 13 13 11 11 11 10 9 12 14 14 15 15 12 13 12 11
4 4 4 4 5 6 7 7 8 8 8 8 9 9 9 8 8 10 8 9 10 6 4 7 8 8 9 9 7 7 10 9 9 10 9 10 10 10 10 11 12 12 11 10 11 12 13 14 14 14 12 13 12 11
3 3 4 4 6 6 6 7 8 8 7 8 7 8 8 8 8 9 9 9 9 4 4 5 7 9 9 9 9 8 7 9 9 7 7 10 10 9 10 9 12 12 11 11 11 13 12 12 13 14 12 12 12 11
3 4 4 6 7 7 7 7 8 8 7 7 7 7 7 7 8 9 8 9 9 4 5 5 7 8 8 9 10 10 8 9 8 7 7 6 8 10 8 10 10 10 11 11 9 11 13 13 13 14 13 13 12 11
3 3 4 6 6 7 7 7 7 8 7 7 7 7 7 7 8 8 8 9 10 8 2 1 5 7 8 9 10 10 9 7 7 8 5 7 7 8 5 7 6 10 11 9 10 12 12 13 14 14 13 12 11 10
3 4 4 5 6 6 7 7 7 7 7 7 6 6 6 6 7 8 5 7 9 10 3 2 3 5 7 8 8 9 8 7 7 7 7 8 9 7 6 6 10 11 11 11 12 13 12 14 13 13 13 12 11 10
3 3 5 5 6 6 6 6 7 6 6 6 6 5 6 7 8 6 5 7 9 10 1 1 1 3 5 6 6 6 7 6 6 6 6 7 8 9 7 8 9 11 11 11 12 12 12 13 13 13 13 13 12 11
3 3 5 5 5 5 5 5 5 5 5 5 5 5 6 7 7 6 6 8 9 7 2 0 1 1 5 5 5 4 3 5 6 6 4 5 6 7 7 8 10 11 11 11 10 10 11 12 11 11 12 11 9 7
4 3 4 5 5 5 5 5 5 5 5 5 5 5 4 4 4 4 6 7 8 6 -0 -1 3 3 4 4 3 4 4 5 4 2 4 5 4 7 9 8 9 9 9 10 12 12 9 9 9 9 8 8 7 7
4 3 3 5 4 4 4 4 4 4 4 4 4 2 3 4 5 6 6 3 2 0 0 0 2 4 3 3 3 3 5 5 6 5 4 4 8 10 9 9 9 9 9 10 10 10 8 8 8 8 7 7 7 7
4 3 3 4 5 5 4 5 4 4 4 4 1 1 4 5 5 2 3 3 2 2 3 3 2 4 2 4 4 5 5 5 5 4 5 4 6 5 9 10 10 10 11 11 10 9 9 9 8 7 7 6 7 7
5 4 4 4 4 4 4 4 4 4 3 3 2 3 3 2 2 2 1 2 3 2 2 4 3 2 2 3 4 5 5 5 6 4 4 4 5 8 9 9 9 9 9 9 10 9 9 9 8 7 6 6 7 8
4 5 5 5 4 4 4 3 4 4 4 5 3 2 2 2 3 3 1 3 3 1 2 3 2 2 2 3 4 5 6 5 4 1 5 5 5 8 9 9 9 8 8 8 8 8 9 8 9 7 6 8 8 7
4 4 5 5 4 4 4 4 4 5 5 2 3 3 3 2 3 3 4 2 1 1 3 5 3 4 3 3 4 5 5 4 2 5 5 3 7 8 8 9 9 9 8 7 6 7 7 7 6 8 7 8 7 5
4 4 4 4 5 4 4 4 5 6 2 2 3 3 2 2 2 1 2 2 2 4 5 3 2 3 2 4 4 5 5 5 6 5 4 6 8 8 8 8 7 6 5 5 6 5 4 4 4 5 5 5 4 3
3 3 4 4 4 4 4 5 5 3 2 2 2 2 1 2 1 1 2 3 3 5 5 3 2 2 4 5 6 6 6 6 5 4 5 7 8 8 8 7 7 6 6 6 6 6 5 4 2 2 1 1 1 2
3 4 3 3 4 4 4 3 2 1 2 3 3 0 -1 1 2 1 2 3 5 6 4 2 4 5 3 4 5 4 4 3 4 5 5 6 7 7 7 6 5 6 5 6 5 4 3 2 1 0 -0 -2 -2 -2
4 4 3 3 3 3 2 1 1 2 2 2 2 1 0 -1 -0 -0 1 4 4 4 3 4 4 4 3 6 5 5 4 4 4 4 4 4 5 5 5 5 6 6 5 5 4 3 2 0 -0 -1 -2 -3 -3 -3
4 4 3 3 3 1 0 1 1 2 3 2 1 0 1 1 1 3 3 4 5 5 4 3 4 4 6 4 4 3 3 4 6 5 3 4 6 5 5 6 6 5 4 3 2 1 1 1 1 -1 -2 -3 -3 -3
4 4 3 3 4 1 2 1 2 3 3 2 2 1 1 2 2 2 3 3 5 5 4 5 7 6 4 5 3 4 4 4 3 3 2 2 5 5 4 4 4 4 3 2 1 1 -1 -2 -1 -1 -2 -2 -3 -4
3 3 3 3 3 2 2 2 2 1 3 2 2 4 2 2 2 1 4 3 2 3 6 7 7 4 3 4 6 5 3 3 3 3 4 4 4 4 4 4 4 3 1 -0 -2 -1 -1 -1 -0 -1 -2 -2 -2 -2
2 3 3 2 1 1 2 3 2 2 3 2 2 3 1 2 1 3 1 3 5 6 3 3 3 3 3 4 4 7 7 7 7 5 4 3 4 2 1 2 1 -2 -1 -0 -0 -1 -1 0 0 -1 -2 -2 -3 -3
2 1 1 0 2 2 3 3 3 4 3 4 2 4 3 3 2 3 3 2 3 3 5 6 6 7 6 7 7 7 8 7 3 3 4 4 4 4 3 3 3 0 -2 -0 2 1 1 1 -0 -1 -2 -3 -4 -4
3 2 2 3 3 3 3 3 3 3 4 4 3 4 4 3 2 3 4 3 2 3 4 4 4 4 4 5 5 6 8 9 6 5 5 4 2 2 3 4 4 4 4 4 2 1 0 -0 -1 -2 -3 -4 -4 -5
3 3 3 3 2 3 3 3 4 4 4 3 3 3 3 3 4 4 4 3 3 4 4 4 4 4 5 6 4 4 7 7 4 4 6 5 3 2 2 3 3 4 4 2 -0 -1 -1 -2 -2 -2 -3 -4 -4 -4
4 2 3 3 3 2 3 4 3 1 2 1 3 3 3 4 4 3 3 6 4 2 2 3 4 3 3 5 6 4 4 6 6 3 5 6 5 3 1 -1 -2 2 4 3 2 -1 -3 -3 -3 -3 -4 -3 -3 -3
2 2 3 2 2 3 1 1 2 2 1 3 4 3 1 2 2 2 0 1 0 -1 0 1 1 2 5 4 4 5 6 7 6 6 8 7 7 7 6 2 -1 5 5 4 2 2 -0 -2 -3 -3 -3 -3 -2 -2
1 3 3 2 1 3 0 -0 -0 0 2 2 2 0 2 2 3 0 0 -0 -0 0 1 1 1 1 2 4 6 7 5 4 3 4 5 4 5 5 5 5 5 5 5 4 3 2 1 0 -2 -2 -2 -1 -2 -2
2 2 2 -3 -1 0 -0 1 2 1 1 3 2 0 1 -1 -2 -2 -2 -1 -0 1 0 -1 1 0 1 1 1 2 3 2 1 -0 1 -1 -3 2 3 3 4 4 4 3 2 2 2 1 0 -0 0 -0 -0 -2
2 1 -0 -4 -4 -1 0 1 0 -2 -1 -1 -1 -1 -2 -4 -3 -3 -2 -1 -1 -1 -1 -1 -2 -1 -0 0 -1 -1 0 1 3 3 2 2 2 3 2 2 3 2 2 1 -1 -2 -2 -2 -2 -2 -3 -3 -3 -3
-0 -1 -2 -2 -0 -1 -1 -4 -3 -3 -3 -4 -6 -5 -5 -5 -3 -3 -3 -3 -2 -1 -2 -2 -2 -2 -1 -3 -4 -4 -1 1 2 2 2 2 3 3 2 2 2 1 0 -0 -1 -2 -2 -3 -3 -3 -3 -4 -4 -4
-2 -4 -4 -4 -3 -2 -4 -3 -2 -0 -0 -2 -4 -5 -5 -5 -5 -7 -3 -3 -3 -2 -1 -1 -2 -2 -2 -1 -1 -0 -0 0 1 0 1 1 1 1 1 0 -0 -1 -1 -1 -2 -2 -2 -2 -3 -4 -4 -4 -4 -4
-3 -6 -6 -5 -3 -3 -3 -3 -3 -3 -4 -2 -2 -2 -2 -1 0 -7 -4 -3 -3 -3 -2 -1 -1 -2 -1 -1 -2 -1 -1 -1 -1 -1 -1 -1 -0 -0 -1 -2 -2 -1 -1 -2 -2 -2 -3 -3 -4 -4 -4 -4 -5 -5
Height
634 634 634 635 638 639 644 654 663 672 684 695 707 720 730 743 755 763 769 770 777 790 795 793 794 796 799 803 809 803 809 810 819 812 816 835 831 819 815 814 823 828 837 841 847 835 822 796 800 811 804 795 794 798
627 626 624 620 621 626 634 644 655 668 680 690 703 715 726 739 751 761 768 772 777 785 795 795 796 796 796 798 801 803 801 804 805 808 819 816 824 821 820 823 811 819 817 826 824 813 796 792 791 789 791 793 793 795
618 617 614 609 610 617 628 636 649 663 674 685 697 710 722 737 748 757 767 772 775 788 797 795 797 797 797 798 798 802 804 802 804 805 814 814 819 815 820 822 807 805 804 809 809 796 794 790 788 786 787 787 787 789
612 608 603 600 606 615 624 631 643 656 669 682 693 706 722 735 747 755 762 768 773 784 796 800 795 796 798 798 798 799 803 805 807 807 811 819 817 806 813 805 809 803 802 802 808 797 790 786 783 780 782 783 785 787
608 604 600 598 603 612 620 628 639 654 667 678 692 705 719 732 744 754 763 769 772 777 800 805 797 798 797 797 798 801 802 808 812 809 818 815 808 807 816 813 815 796 795 807 802 786 786 783 779 777 779 781 781 785
603 601 599 601 605 613 620 629 639 653 667 675 690 703 716 729 742 753 770 773 773 776 790 808 799 797 795 796 798 803 803 807 815 815 815 806 800 806 817 814 788 783 782 781 781 779 781 778 779 777 779 780 780 781
605 603 601 604 608 615 624 632 643 656 663 674 693 706 718 732 741 750 759 761 771 775 791 810 810 799 797 797 800 802 803 805 809 813 817 814 802 802 807 798 784 778 778 778 776 777 778 775 775 773 775 775 776 777
607 608 607 612 615 621 630 639 649 661 670 684 700 711 723 734 744 753 759 763 770 778 788 809 810 806 797 800 804 802 806 805 804 806 812 811 808 805 798 783 777 774 774 773 774 772 772 771 771 771 771 772 774 775
612 614 615 619 622 627 636 648 659 671 679 691 703 715 726 738 749 757 764 769 773 780 798 802 800 804 796 797 802 804 804 808 806 811 806 806 804 791 769 775 774 771 769 768 764 763 767 768 768 768 769 769 771 770
616 620 622 625 631 638 646 657 668 678 687 697 706 720 734 741 749 759 770 776 780 785 789 795 791 791 793 799 803 806 804 805 803 800 797 799 776 758 763 766 765 764 762 762 765 759 763 764 765 763 763 761 760 760
620 626 630 635 640 647 655 663 672 682 691 699 714 729 738 746 751 766 777 782 789 790 786 784 789 787 792 796 799 800 801 803 802 801 796 791 768 763 753 750 751 750 748 748 750 750 753 755 757 757 756 755 755 755
623 630 637 641 648 654 661 670 678 684 693 702 710 729 740 751 762 770 782 784 781 781 776 775 780 782 789 790 796 799 799 801 794 795 797 788 767 746 740 740 740 742 744 746 745 746 746 747 748 748 747 747 746 744
627 634 642 648 653 658 667 678 687 691 698 708 719 735 742 753 757 765 778 774 768 767 767 768 780 781 786 787 793 795 791 793 789 806 780 769 758 741 740 739 738 737 739 740 741 742 742 741 739 740 740 737 736 738
631 638 647 653 659 666 673 681 688 694 698 714 724 734 737 749 747 744 736 744 751 754 757 759 772 778 782 788 787 787 786 785 795 781 771 765 744 738 737 736 735 734 736 737 737 735 736 736 734 733 733 732 732 731
635 643 651 659 665 672 677 686 693 697 705 718 723 730 735 733 736 737 736 743 747 745 751 761 771 772 781 779 781 778 782 779 765 759 759 744 737 736 734 733 732 732 732 732 731 731 730 729 729 728 728 727 726 726
639 649 656 661 668 675 683 692 699 706 714 720 725 728 732 733 739 739 736 739 737 743 749 755 767 773 770 767 767 766 764 760 754 749 739 736 733 730 728 728 729 730 729 727 726 725 725 727 727 727 727 726 726 726
639 644 654 664 673 681 690 696 704 711 715 717 719 722 727 725 724 728 728 732 733 740 751 759 757 755 760 763 759 756 757 755 746 739 735 733 731 728 726 726 725 724 722 722 723 724 724 725 726 727 728 728 728 729
640 645 654 665 675 685 691 698 704 709 714 715 718 721 722 723 724 726 727 727 732 736 743 742 743 751 756 747 748 740 739 735 733 732 730 727 726 724 723 723 721 719 719 720 721 722 723 724 726 727 728 729 729 731
639 646 658 668 675 683 692 699 703 707 708 711 714 715 715 718 718 716 719 722 724 726 732 738 741 740 733 735 733 733 731 731 728 725 725 721 720 719 716 716 715 714 716 717 719 720 722 723 725 726 727 729 730 732
643 651 661 669 678 687 694 700 701 701 701 705 705 711 713 712 714 717 719 722 723 728 732 729 717 720 724 723 724 722 720 719 724 725 723 717 712 711 710 710 711 712 714 715 717 719 721 723 724 724 725 728 729 731
646 654 666 674 680 684 686 691 694 695 696 701 700 700 706 706 711 716 715 716 725 723 714 708 708 713 713 713 712 713 714 716 717 718 715 714 707 708 707 708 709 710 712 713 715 716 718 719 721 722 724 726 729 731
640 652 662 674 680 681 682 682 684 687 692 695 697 698 703 708 711 707 710 715 706 701 704 705 704 704 704 705 704 704 703 705 707 709 707 707 707 707 706 704 707 709 710 709 711 713 715 716 718 721 723 726 729 732
641 651 660 668 673 678 676 678 680 682 687 689 695 694 696 697 697 696 703 699 694 689 687 691 690 690 691 691 693 694 696 697 699 703 702 700 701 701 701 700 702 704 706 706 707 709 712 715 717 720 723 726 729 732
646 651 655 661 664 668 674 675 678 680 680 685 687 686 687 691 693 693 690 688 681 678 678 679 683 687 688 688 687 686 684 685 689 693 695 697 697 695 697 698 698 698 700 701 703 706 710 713 715 719 721 724 728 731
644 651 653 656 659 663 666 672 670 673 673 680 682 686 686 688 688 689 683 677 676 673 671 671 673 675 676 675 677 676 675 679 683 685 684 688 690 692 694 694 695 696 697 699 702 704 707 710 713 716 720 723 726 729
639 648 646 648 654 658 659 661 668 677 676 685 681 681 684 683 688 684 674 664 665 665 665 665 665 668 669 667 668 669 668 672 676 678 677 679 681 684 687 691 692 691 692 694 697 700 703 707 710 713 717 721 724 727
640 640 640 643 644 645 655 660 662 666 678 672 673 680 688 689 687 671 666 664 665 664 663 662 662 661 659 660 661 663 665 667 668 669 670 672 675 678 680 683 686 685 687 689 692 694 697 702 706 710 714 718 721 723
633 633 634 640 644 640 654 661 667 670 662 663 670 682 676 672 664 663 663 664 664 663 662 661 659 657 656 656 657 658 660 662 665 667 669 671 672 674 675 678 680 682 684 686 688 691 694 698 702 707 710 713 717 722
630 629 632 652 647 646 650 650 649 650 650 650 658 665 660 661 662 663 663 663 663 662 661 661 660 658 656 656 656 657 658 659 663 669 671 673 673 671 672 674 677 679 682 684 687 690 693 696 700 703 707 712 715 719
627 629 637 654 656 652 649 647 649 651 651 652 655 660 662 664 663 663 662 661 661 661 661 661 661 660 659 659 659 659 660 662 663 663 665 666 666 668 669 672 675 678 680 683 686 690 693 697 700 704 708 712 716 719
627 633 643 648 648 649 649 651 650 651 653 657 659 665 666 665 662 661 661 661 661 660 660 661 661 661 661 661 661 662 662 663 663 663 664 665 666 667 669 671 674 677 680 682 685 689 692 697 700 704 707 711 715 719
632 642 644 653 654 652 652 653 653 652 653 658 663 663 666 667 666 662 660 659 659 659 660 661 662 662 662 662 662 662 663 663 664 664 665 665 666 667 669 672 675 677 680 683 686 690 694 697 701 704 708 712 716 720
638 644 647 652 655 656 654 656 659 660 662 658 659 659 659 658 655 661 659 659 659 659 659 659 660 660 661 661 662 662 663 663 663 664 664 665 666 668 670 673 676 679 681 684 688 692 695 699 703 707 711 714 718 722
Wind_Speed
23 30 33 35 38 39 43 54 55 59 57 58 58 58 55 50 46 26 10 18 6 3 2 4 3 3 3 2 5 4 3 2 2 5 6 4 4 6 5 5 6 7 6 3 2 4 12 5 3 6 6 2 6 6
22 25 32 34 35 41 44 62 61 59 57 59 61 60 55 54 48 31 12 14 24 6 3 2 5 9 5 1 4 3 3 1 3 3 1 3 2 2 4 5 2 7 7 5 9 7 4 4 6 5 5 5 5 6
22 24 27 34 41 47 40 62 61 61 58 60 59 57 52 52 45 31 25 19 12 4 2 3 2 1 6 7 5 3 2 2 2 2 4 2 5 3 4 5 4 4 4 4 3 6 8 8 4 4 6 7 7 7
22 23 25 28 49 43 43 52 62 61 60 59 59 55 52 50 43 32 28 23 12 7 3 3 3 2 1 2 6 14 6 5 1 2 2 3 3 3 3 3 5 6 5 5 4 6 6 6 7 7 6 4 4 4
20 13 12 24 37 43 40 47 59 58 59 59 57 57 55 50 37 28 24 22 15 8 4 2 2 2 2 3 4 5 13 4 2 2 0 3 2 2 1 2 3 5 7 5 6 7 4 6 1 1 6 7 9 7
10 12 12 20 33 41 44 55 53 56 59 60 57 54 51 44 39 35 4 8 14 13 4 1 3 2 2 3 2 2 5 4 2 1 2 3 2 3 1 4 5 6 5 7 5 4 5 4 5 3 3 6 7 8
9 7 23 19 33 45 41 45 49 52 58 54 53 53 49 43 40 8 6 20 20 16 3 2 2 3 1 2 1 1 2 2 3 3 4 3 2 2 1 5 5 6 5 5 5 0 3 5 5 5 4 5 5 11
10 6 25 30 33 44 47 48 51 51 54 54 50 49 45 37 27 13 22 30 25 12 5 3 3 3 2 2 0 0 1 2 1 3 1 3 1 3 5 8 7 10 10 10 10 9 7 4 4 6 6 3 5 8
15 12 21 37 38 48 48 46 48 50 50 51 49 45 34 12 6 7 26 20 10 5 4 3 5 4 3 2 2 1 2 0 0 3 3 4 3 6 7 6 9 9 8 10 13 11 8 8 9 8 7 7 8 9
21 19 17 38 43 48 52 51 50 49 49 51 34 10 4 8 42 28 6 3 4 3 2 2 1 3 4 2 0 3 1 2 2 4 2 4 9 20 8 6 7 8 10 11 13 15 5 5 8 8 9 8 10 9
28 24 25 30 40 44 48 52 52 52 43 14 3 3 28 35 9 3 3 3 3 2 3 3 5 4 1 4 3 2 2 2 2 4 4 3 6 4 12 19 18 18 17 15 9 6 6 8 8 9 9 10 14 18
30 29 27 32 42 45 54 56 53 26 12 13 23 24 9 4 3 5 3 1 3 6 5 6 6 4 3 3 3 3 3 2 5 2 2 4 4 9 10 11 12 12 11 10 14 9 13 14 15 12 10 12 20 27
31 33 29 31 42 56 57 49 33 41 41 26 7 4 4 2 4 7 8 5 6 4 5 5 4 4 2 2 3 3 5 5 3 1 4 4 4 7 6 4 6 6 9 8 10 12 17 19 22 18 16 26 24 18
34 35 35 33 38 50 50 41 42 27 10 3 3 6 4 4 5 6 9 5 4 4 9 8 4 4 2 3 3 3 4 1 1 4 5 3 9 9 6 3 3 5 6 8 9 9 11 14 15 16 16 19 17 18
38 38 37 38 41 48 42 46 35 19 5 3 3 4 4 3 1 2 4 4 3 9 9 4 3 3 2 3 4 3 3 5 6 4 4 5 7 6 6 4 5 7 7 7 8 7 8 6 7 11 9 12 13 14
41 39 29 40 46 48 47 37 20 5 3 3 2 3 1 3 1 1 4 4 4 8 5 3 4 4 4 4 5 6 4 6 4 4 4 3 4 5 4 4 5 6 7 9 10 7 4 4 4 4 4 4 4 11
43 12 37 43 48 48 43 12 5 2 3 4 3 1 2 2 4 3 3 4 8 9 4 3 6 7 2 3 5 5 5 3 4 4 3 5 6 5 6 6 7 10 9 6 4 5 3 2 2 2 1 1 3 6
22 31 43 42 44 42 9 3 3 3 4 2 4 4 2 1 3 2 4 6 5 5 5 5 4 4 5 5 4 4 5 4 4 5 5 6 6 7 10 7 13 13 9 6 5 5 5 5 4 3 5 7 8 10
29 44 47 47 38 9 3 2 2 4 4 3 2 1 3 2 2 2 4 6 4 3 4 3 3 4 6 4 5 3 3 4 6 6 4 6 12 12 13 14 14 10 8 7 7 7 6 7 6 8 9 11 11 13
32 45 52 44 36 4 3 2 5 2 4 4 3 4 4 3 4 1 2 4 4 3 2 5 12 7 4 4 4 4 4 3 3 3 4 5 11 8 11 9 8 8 6 5 5 8 8 6 7 9 11 13 14 13
33 41 52 44 11 5 2 4 4 4 4 3 3 6 3 3 3 4 6 4 2 4 7 11 12 5 6 6 9 7 4 5 5 5 5 5 6 7 8 8 7 8 6 7 5 7 11 10 9 10 11 13 12 13
7 40 23 13 2 2 2 6 4 4 3 2 3 3 3 4 3 6 3 3 7 8 5 5 5 5 5 8 6 18 20 13 14 10 9 6 3 3 4 9 8 3 10 12 12 11 13 11 10 11 11 12 12 13
20 14 6 5 4 5 4 8 3 5 5 6 2 4 3 3 4 5 4 5 5 5 7 8 9 11 8 14 13 14 18 12 4 6 13 11 13 12 9 8 16 11 4 12 14 14 14 13 14 13 13 15 15 14
18 4 4 5 4 5 4 4 3 3 3 4 5 4 2 3 3 1 4 4 4 3 6 7 4 4 3 4 7 9 19 19 13 14 16 10 4 6 11 12 15 18 15 5 12 14 15 18 17 17 17 19 18 17
5 4 4 4 2 4 4 4 3 3 5 3 5 3 3 3 3 5 4 3 3 5 6 7 8 9 10 9 6 9 22 20 7 8 18 20 8 3 5 10 12 14 13 13 12 17 18 19 20 21 21 21 20 18
4 5 6 6 4 5 5 6 7 5 4 2 2 3 2 3 3 6 4 6 6 4 4 7 8 7 7 9 10 6 12 24 23 6 13 16 19 11 5 4 3 9 18 19 17 20 20 22 23 22 21 21 21 19
4 5 4 3 3 4 4 3 2 4 4 5 5 4 4 5 7 5 1 0 1 2 4 5 7 6 8 4 13 11 8 16 21 16 21 16 17 21 22 12 6 16 11 17 19 20 24 24 23 23 21 22 21 22
4 4 8 5 3 1 5 4 5 6 5 4 6 5 9 9 6 2 1 1 4 5 5 5 5 7 12 14 12 10 9 11 13 9 5 4 9 15 19 19 16 10 7 12 17 19 21 24 26 26 25 24 21 20
2 2 4 3 3 3 2 4 5 2 2 6 7 4 4 1 1 0 1 3 3 3 4 5 6 4 5 4 4 7 8 17 8 5 6 4 1 8 13 12 11 10 9 12 15 17 18 20 22 23 24 22 18 18
3 1 4 3 4 1 2 0 2 1 1 2 3 2 1 1 1 1 1 2 2 2 3 3 4 4 1 1 2 4 4 7 3 3 3 4 6 8 12 13 12 11 12 15 17 17 17 16 16 15 16 15 17 19
2 3 4 3 3 1 1 1 1 2 2 2 2 3 2 2 2 3 2 2 3 3 1 1 3 4 1 2 2 1 1 3 4 4 3 4 3 6 10 13 13 14 15 17 19 19 19 17 17 18 18 19 19 19
2 2 4 4 1 2 2 2 1 2 1 2 1 2 1 1 2 2 3 3 2 2 4 3 2 4 5 5 5 5 4 5 5 6 5 5 5 6 9 12 15 15 17 18 19 19 19 19 19 19 19 17 17 16
2 3 3 3 2 0 1 3 3 1 2 1 0 1 1 2 3 3 3 2 4 5 7 6 6 5 3 2 2 3 3 3 4 6 7 8 8 10 13 14 15 16 17 18 19 20 19 18 17 17 16 16 16 14
Wind_Direction
246 244 247 258 242 239 217 201 194 191 189 192 191 190 188 183 179 171 127 175 136 94 342 31 21 129 101 129 155 201 84 307 60 182 199 203 181 215 188 178 172 170 177 199 127 221 261 199 89 184 219 275 173 167
254 250 259 246 251 214 207 191 191 189 185 188 191 187 186 183 181 177 124 128 172 85 167 118 84 64 70 132 137 356 130 89 182 114 110 95 224 183 167 239 146 223 190 187 186 208 232 209 206 216 189 185 210 181
262 262 259 265 205 192 201 187 186 186 182 187 183 185 180 181 180 175 154 141 120 99 353 82 95 13 93 41 29 117 4 82 62 148 155 152 264 149 180 233 211 255 154 219 101 229 234 233 255 259 194 216 191 182
260 261 247 205 192 190 193 190 180 182 180 178 178 178 177 177 171 168 158 160 117 102 114 273 352 93 16 40 82 89 104 42 75 95 135 151 189 175 216 228 192 202 143 191 265 286 287 279 226 229 207 213 203 171
257 242 251 195 176 178 185 186 173 181 174 172 173 172 173 167 163 162 159 166 172 126 156 237 324 218 212 127 108 138 114 94 340 342 334 224 212 145 313 39 241 188 186 174 223 229 190 245 2 174 195 206 206 184
250 227 204 186 162 176 171 176 166 175 167 162 161 162 157 154 154 134 74 155 158 160 96 99 315 345 60 165 159 191 148 107 133 19 306 268 234 100 134 238 238 216 204 184 205 187 198 231 254 200 206 246 244 201
207 225 166 162 167 148 155 153 152 148 152 157 156 154 150 151 146 119 160 149 136 130 84 38 328 307 1 89 85 120 146 178 145 164 193 270 315 137 241 235 243 230 242 232 254 72 269 214 228 168 201 260 253 237
177 160 147 163 152 149 136 134 138 137 137 142 147 149 145 140 116 84 128 137 140 96 79 126 241 8 170 145 210 181 113 37 253 192 121 197 215 167 243 229 226 253 267 265 244 223 220 220 223 253 251 227 212 228
168 149 140 140 138 140 149 143 140 141 141 141 142 141 119 105 100 115 138 135 108 95 143 131 153 199 183 125 148 72 98 127 333 206 221 139 216 219 228 180 211 220 203 228 259 267 205 210 224 237 240 226 221 238
161 156 148 141 143 137 140 142 142 141 140 135 119 71 90 118 121 120 76 49 22 358 55 173 119 156 129 135 193 106 86 219 242 240 122 202 246 244 216 218 227 234 223 227 245 260 226 224 226 236 221 226 217 222
162 160 157 153 147 148 146 139 134 132 127 118 91 83 125 128 89 48 95 117 155 210 207 200 179 139 243 128 143 196 153 186 240 265 175 253 261 226 214 230 237 233 231 236 245 264 211 216 225 230 242 227 224 228
165 161 162 161 154 141 140 138 137 133 124 120 112 115 97 73 73 99 99 140 200 217 192 181 187 155 171 130 113 165 186 177 246 140 142 263 269 234 217 224 239 240 239 242 246 248 261 262 246 242 241 243 234 237
167 162 164 161 150 139 141 136 134 123 114 112 87 96 129 135 127 151 172 195 209 176 169 154 127 133 97 102 105 179 210 217 107 148 226 224 259 267 246 246 249 229 233 242 253 242 249 255 262 245 245 254 258 252
167 163 164 163 156 151 146 149 141 131 93 83 110 125 153 164 192 204 195 155 192 138 145 141 123 140 169 116 130 211 232 97 229 233 231 235 236 251 267 252 199 249 217 220 240 243 239 245 262 274 258 267 263 238
166 164 162 163 163 154 149 147 150 145 81 102 116 124 178 182 163 251 114 112 178 145 140 97 69 119 155 133 185 181 199 242 218 221 214 234 245 254 268 268 264 277 281 261 246 245 256 242 254 284 306 302 284 251
164 161 163 164 161 156 153 145 142 76 56 116 137 127 70 88 314 189 175 149 152 142 125 77 137 131 191 180 193 202 195 223 242 214 225 257 254 258 249 255 269 272 268 263 270 254 247 257 272 297 328 333 241 203
160 149 169 166 163 160 154 126 87 80 135 140 192 135 155 96 185 189 134 149 142 142 168 145 170 198 112 189 210 188 211 211 218 246 236 226 247 255 260 287 289 289 287 261 203 200 207 214 196 168 157 41 162 181
156 161 163 162 157 154 132 92 111 128 164 175 165 194 197 154 150 123 155 151 149 168 133 204 124 154 201 190 240 232 227 240 222 232 241 255 258 266 257 251 279 278 263 220 212 199 195 187 190 186 162 159 142 149
155 160 164 157 157 130 111 129 148 167 181 145 193 188 152 183 234 159 155 183 188 151 111 123 203 190 213 210 203 231 224 212 241 248 241 256 256 255 274 277 271 256 205 194 199 207 208 211 218 190 176 171 159 159
161 163 161 154 152 103 104 99 153 179 191 192 179 165 178 198 137 207 169 177 172 160 170 201 226 230 201 202 199 216 222 226 172 273 282 274 266 276 270 264 249 234 194 182 183 178 164 163 188 184 183 182 171 167
150 165 160 161 171 114 144 159 177 176 165 184 181 176 204 147 160 173 210 153 129 206 221 227 237 235 206 221 229 221 222 183 206 197 231 276 289 263 272 258 229 201 193 194 189 204 193 200 199 191 187 192 195 190
183 153 152 152 87 184 199 192 159 163 132 184 129 163 134 173 196 206 149 185 227 225 195 193 207 205 213 219 225 225 236 248 262 252 246 227 256 242 240 220 185 200 211 214 203 202 210 202 193 195 193 188 190 187
115 123 105 129 142 189 176 149 128 164 149 171 139 163 188 176 196 139 192 209 226 215 213 215 222 215 225 231 213 213 214 214 216 243 250 241 254 255 248 225 214 198 215 227 220 215 208 199 195 190 184 180 178 177
126 103 141 158 142 164 144 179 170 142 129 170 171 178 193 164 135 177 234 214 225 212 203 199 171 213 239 200 218 233 241 237 231 245 246 226 235 244 230 235 223 222 228 252 214 206 198 193 190 183 180 176 179 179
133 170 145 151 152 138 134 141 142 145 160 178 131 158 169 150 179 225 240 250 214 227 209 199 201 207 224 233 231 228 233 215 210 229 243 223 200 162 219 230 230 229 222 211 192 194 192 188 187 185 184 183 179 185
131 194 174 159 158 145 159 143 175 165 143 117 147 115 100 174 197 245 227 224 228 209 196 208 213 217 227 224 237 229 226 224 219 214 239 215 214 195 195 187 206 243 224 222 207 191 186 189 188 187 186 191 191 193
160 182 177 215 174 138 94 92 111 120 139 159 155 153 147 184 227 240 230 198 268 304 307 288 241 224 238 230 219 221 227 226 214 227 240 243 237 231 222 203 205 245 235 215 211 204 194 189 188 188 186 195 202 209
175 162 162 174 129 107 124 118 140 176 176 164 133 174 181 199 225 189 158 12 348 340 330 331 327 278 257 253 250 231 207 201 199 195 181 204 220 226 230 235 244 259 234 214 214 210 206 202 194 192 195 199 206 210
142 167 105 49 76 65 126 161 187 197 153 163 168 187 218 139 84 115 281 309 327 3 9 345 354 39 77 98 151 188 184 166 140 147 181 204 252 219 213 214 215 208 199 205 212 213 208 207 207 206 204 205 206 201
170 159 94 78 91 137 172 247 170 185 85 106 102 77 64 343 280 306 348 3 20 333 315 314 313 342 348 20 107 88 133 182 194 176 175 194 216 217 198 190 189 193 197 191 185 182 192 197 197 190 187 181 181 183
112 84 93 100 130 151 186 227 108 85 53 71 48 108 185 213 274 253 258 277 301 290 172 316 333 354 358 110 117 93 302 241 244 252 264 278 257 212 199 196 197 194 188 183 179 178 176 174 174 169 171 176 180 185
58 117 121 96 83 310 9 82 98 74 56 72 12 97 105 80 266 266 220 262 280 262 245 255 264 278 284 279 273 252 264 285 275 257 241 221 195 189 189 194 193 186 181 178 177 173 171 168 169 175 174 174 175 180
78 67 66 89 76 44 292 84 31 36 28 77 92 136 153 186 252 252 182 219 245 256 269 259 267 274 260 256 244 263 275 273 242 221 212 211 207 189 187 183 179 177 176 174 172 169 166 168 170 170 169 169 172 175